Wind_Speed
18 19 20 22 23 26 26 26 26 28 29 28 28 26 26 26 29 32 34 33 32 32 30 28 24 23 22 22 22 23 24 24 25 25 25 27 27 27 27 27 29 30 31 32
18 19 21 22 23 24 25 25 25 26 28 27 26 26 25 26 29 31 33 33 33 33 31 29 27 25 25 25 25 25 26 27 27 28 29 31 30 30 30 31 31 32 34 35
17 18 20 21 22 23 24 24 25 26 26 26 25 25 25 26 28 30 32 34 34 33 32 31 29 28 28 27 27 28 28 29 30 30 32 31 32 33 33 33 34 35 35 37
16 18 19 20 21 22 22 23 25 26 24 22 24 20 25 26 27 29 31 33 34 33 33 32 32 31 31 30 30 29 29 31 32 31 32 34 35 36 36 37 38 38 38 39
15 16 18 19 20 21 22 23 25 26 25 24 23 20 23 25 26 28 30 31 33 34 35 35 35 34 34 33 32 31 31 32 33 34 34 34 36 36 38 40 40 41 41 40
12 14 17 18 20 21 22 23 24 25 23 22 23 21 22 23 24 25 26 28 30 32 35 36 37 36 35 34 34 33 34 34 35 36 36 35 36 37 38 40 40 41 41 40
9 11 14 17 18 20 21 22 20 20 21 20 24 24 24 22 22 22 23 25 26 28 30 32 34 35 35 35 35 35 35 35 36 36 36 36 38 40 41 41 41 42 41 40
6 8 13 15 17 18 20 21 18 15 18 20 24 25 24 21 21 21 21 22 23 24 26 28 31 32 33 34 35 35 35 35 36 36 37 37 39 40 41 41 43 42 42 43
8 8 11 14 17 19 20 21 21 19 18 18 23 25 23 21 21 21 21 22 23 23 24 25 27 29 31 32 33 34 35 36 36 38 38 39 41 42 44 45 45 44 45 45
10 10 10 13 16 18 19 20 21 19 15 16 21 24 24 23 22 22 22 23 24 24 25 27 28 29 31 33 34 35 36 37 38 40 42 43 44 45 45 46 46 46 47 46
8 10 10 12 15 17 18 19 20 18 17 15 18 23 22 22 23 24 24 25 26 26 28 29 30 32 33 35 36 37 38 40 41 43 43 44 45 45 46 46 47 47 47 47
9 10 10 12 13 15 18 19 19 17 18 19 17 21 21 22 23 24 25 26 27 29 30 32 33 35 36 37 38 39 41 41 42 43 44 45 46 46 46 47 47 47 47 47
7 9 8 9 11 14 16 17 18 19 19 18 18 23 22 23 24 25 26 28 29 31 32 33 35 36 38 38 39 40 41 42 42 43 43 44 45 44 44 45 45 46 46 47
6 8 9 9 11 12 14 16 17 18 17 19 22 24 23 24 25 26 27 28 30 31 33 34 35 36 37 38 38 39 40 41 41 42 42 42 42 43 43 43 44 44 45 45
6 7 8 9 9 11 13 15 17 18 19 21 23 24 24 25 26 27 28 28 30 31 32 33 34 35 36 36 37 37 38 38 38 38 39 39 40 41 42 42 42 43 44 44
4 5 6 7 9 10 12 14 16 17 19 21 22 23 24 25 25 25 26 27 28 29 30 31 31 31 32 32 33 33 34 35 36 37 37 37 38 39 40 40 41 41 43 44
2 3 4 5 7 8 11 12 14 16 18 20 21 22 23 24 25 25 26 26 27 27 27 27 27 28 28 28 29 30 31 31 32 33 33 34 35 36 37 38 39 40 40 41
2 1 2 4 6 8 9 11 13 15 17 18 20 21 22 23 23 23 24 24 24 25 25 25 25 26 26 27 28 29 29 30 30 30 31 32 33 34 35 36 37 37 38 39
3 2 1 2 5 7 8 10 11 13 15 17 18 18 18 19 20 21 21 20 21 21 21 22 22 23 24 24 25 26 26 27 28 29 29 30 31 32 33 34 35 35 36 36
5 4 3 3 4 5 7 8 9 11 12 13 14 15 15 16 17 17 17 18 19 19 20 20 20 21 21 22 23 23 24 25 26 27 28 29 29 30 31 32 33 33 34 34
6 6 5 5 5 5 6 7 8 9 11 12 12 12 12 14 15 15 15 15 16 16 17 18 18 19 19 20 22 22 23 24 25 25 26 26 27 28 28 29 28 29 29 30
6 6 6 6 6 6 7 7 8 9 10 10 10 10 10 11 12 12 12 12 13 13 14 15 16 17 18 19 21 22 23 24 24 24 24 25 24 24 24 24 24 24 25 25
7 7 8 8 8 8 8 8 8 8 8 8 8 8 8 8 8 9 10 10 10 11 12 13 15 16 18 19 21 21 22 22 22 22 22 22 22 21 20 20 21 21 22 22
7 8 9 9 9 9 9 9 9 8 7 6 6 5 5 5 6 7 7 7 8 10 11 13 15 16 17 19 20 21 21 21 21 21 21 20 19 18 18 19 18 19 19 19
8 9 10 11 11 10 10 10 9 7 7 6 6 5 5 5 5 6 6 7 8 10 11 13 14 15 17 17 18 19 19 19 19 18 18 17 17 16 16 16 16 17 16 16
8 10 11 11 11 11 11 11 10 8 7 7 6 6 5 5 5 6 7 8 9 10 12 13 14 15 15 16 17 17 17 17 17 17 16 15 14 14 14 14 14 14 14 14
Wind_Direction
239 234 229 227 222 219 217 214 213 216 216 218 220 223 225 224 222 223 222 222 220 222 227 230 236 241 242 239 238 236 235 235 235 239 242 244 245 247 250 255 259 261 263 266
237 232 228 224 220 217 214 211 211 214 215 215 217 220 221 222 221 221 220 222 224 225 231 235 238 244 244 244 242 241 239 239 241 241 242 245 248 251 252 255 262 266 268 268
235 231 226 222 217 214 211 209 207 210 212 213 217 220 220 221 222 223 224 225 226 227 231 235 239 243 245 247 248 247 246 244 245 246 244 247 251 255 256 259 262 266 270 274
235 229 225 220 216 211 209 207 206 206 206 212 212 217 222 223 224 224 226 228 231 232 234 236 240 243 246 248 250 251 253 252 249 251 252 251 254 258 261 264 267 269 272 275
235 227 222 217 213 208 205 204 204 204 206 210 211 210 227 225 227 227 228 230 233 236 238 238 240 243 245 248 250 250 254 257 256 257 259 258 259 261 264 266 270 272 275 279
230 225 218 213 209 206 203 202 203 204 207 212 212 212 226 226 229 230 230 232 235 237 238 239 240 242 243 245 249 250 253 257 257 260 262 263 262 264 268 271 276 279 281 282
230 221 213 207 204 204 199 195 197 202 206 213 216 215 224 227 229 230 231 231 233 236 236 235 236 238 240 244 248 252 254 258 260 262 263 265 267 269 271 276 279 284 285 287
207 218 210 202 198 197 197 192 186 201 209 217 218 220 224 228 229 230 231 232 233 235 233 233 234 237 241 244 248 251 255 259 262 265 269 272 275 279 280 280 284 286 288 292
181 196 206 199 195 192 194 194 196 196 203 214 222 225 227 228 230 230 231 233 236 239 239 239 240 242 246 249 254 258 262 265 268 272 276 279 280 282 284 286 287 287 289 290
179 179 192 193 192 195 194 198 202 200 210 222 230 231 232 230 231 232 233 236 240 242 244 246 248 250 253 257 260 264 267 269 272 274 277 279 282 284 286 287 286 286 287 288
172 174 188 192 192 194 197 201 204 205 208 219 236 236 234 235 234 235 237 240 243 245 247 249 252 255 258 261 265 268 271 273 275 277 278 280 282 283 284 284 284 284 284 284
178 178 186 196 195 196 200 205 209 212 225 221 233 241 239 243 245 245 245 246 248 250 253 255 257 259 261 264 266 269 271 273 275 276 277 279 280 281 281 281 282 282 283 284
178 178 178 195 200 202 208 212 217 221 229 235 240 249 246 249 251 251 252 253 254 255 257 259 260 262 264 266 268 269 271 273 274 276 277 278 278 279 279 279 279 280 281 282
178 176 182 197 207 212 216 219 225 229 235 243 244 251 251 252 255 256 258 259 260 260 261 262 264 265 266 267 269 270 271 273 274 275 275 275 276 276 276 276 277 278 280 281
180 188 199 206 212 220 225 228 232 236 239 245 250 254 255 258 260 261 262 263 264 264 264 264 265 267 268 269 269 270 271 272 273 272 272 273 275 276 276 277 278 279 280 281
177 191 205 211 218 228 234 238 241 244 246 249 253 257 259 261 262 263 264 265 266 265 265 265 267 268 268 268 269 270 271 271 273 273 274 275 276 277 277 278 279 281 282 283
153 193 213 222 229 240 244 246 248 251 254 256 259 262 263 262 262 264 265 264 262 262 264 264 266 268 268 269 270 271 272 273 274 275 276 277 278 279 281 283 284 286 287 288
98 146 221 244 248 254 259 259 259 261 261 262 265 267 266 266 265 262 260 261 262 263 265 268 269 268 269 270 271 271 273 275 276 278 279 281 282 284 286 288 289 290 291 293
62 55 345 290 276 275 275 273 270 269 270 269 269 270 268 264 260 257 258 261 263 265 264 264 266 267 269 270 272 273 275 278 280 282 284 285 287 288 290 292 294 294 295 296
49 39 17 337 311 301 292 286 281 279 277 275 274 272 270 268 263 260 261 261 262 264 265 266 267 269 272 275 277 280 283 285 286 288 289 290 292 293 295 296 297 297 298 299
44 36 23 2 340 324 311 301 295 291 288 284 280 276 274 270 268 267 267 267 267 268 269 272 275 278 281 284 285 286 288 288 289 290 291 293 296 297 299 300 301 302 303 304
38 30 17 3 352 340 327 315 310 304 298 292 286 283 278 273 272 274 276 275 274 276 278 280 283 285 287 288 289 290 290 291 290 291 294 296 299 301 304 305 307 308 309 311
34 25 14 8 2 352 344 338 332 326 319 312 304 296 290 286 283 284 285 285 284 284 284 286 287 289 292 293 293 293 293 292 291 292 294 297 300 303 306 309 310 312 313 315
31 26 21 17 12 7 1 355 350 347 343 337 330 320 311 307 301 299 296 292 290 289 290 291 294 295 296 296 295 295 295 293 292 293 295 297 300 304 307 311 314 316 318 320
31 25 22 21 18 14 10 7 5 4 1 357 350 342 335 327 319 313 307 302 301 301 302 302 303 303 302 302 302 300 298 297 296 295 294 295 300 304 307 312 316 318 321 325
32 27 23 21 19 16 13 11 12 10 5 2 358 355 349 343 336 327 322 318 315 313 311 311 311 311 311 310 309 305 302 300 298 296 295 296 300 303 307 313 318 322 324 330
Height
5771 5775 5777 5780 5783 5787 5791 5795 5799 5803 5808 5813 5817 5821 5825 5829 5833 5837 5841 5845 5849 5853 5856 5859 5862 5864 5866 5867 5868 5869 5869 5870 5871 5871 5871 5871 5871 5871 5871 5871 5870 5869 5868 5866
5768 5770 5772 5775 5779 5783 5787 5792 5796 5800 5804 5809 5813 5817 5821 5825 5828 5832 5836 5840 5844 5848 5852 5855 5857 5860 5862 5863 5864 5864 5865 5865 5866 5866 5866 5866 5866 5865 5865 5864 5863 5863 5861 5859
5763 5766 5768 5771 5775 5779 5783 5788 5792 5796 5800 5805 5810 5814 5817 5820 5824 5828 5832 5835 5839 5843 5847 5850 5853 5855 5857 5858 5859 5860 5860 5860 5860 5860 5860 5860 5859 5859 5858 5857 5857 5855 5853 5852
5759 5762 5764 5768 5771 5775 5780 5784 5788 5793 5798 5803 5808 5813 5813 5816 5820 5823 5827 5831 5834 5838 5842 5845 5847 5850 5852 5853 5854 5854 5854 5854 5854 5855 5855 5854 5854 5853 5851 5850 5849 5847 5846 5844
5756 5758 5761 5764 5768 5772 5777 5781 5786 5790 5795 5800 5804 5810 5809 5812 5815 5819 5822 5825 5829 5832 5836 5839 5842 5844 5846 5847 5848 5849 5849 5849 5849 5849 5848 5848 5847 5846 5845 5844 5842 5840 5838 5836
5753 5755 5758 5761 5765 5769 5774 5779 5784 5788 5793 5798 5801 5806 5806 5808 5811 5814 5817 5820 5823 5826 5829 5832 5835 5837 5840 5841 5842 5843 5843 5843 5842 5842 5842 5840 5839 5838 5837 5836 5834 5832 5830 5829
5751 5753 5755 5759 5763 5768 5772 5778 5784 5788 5792 5796 5796 5800 5802 5804 5807 5810 5812 5815 5818 5820 5823 5825 5828 5831 5833 5835 5836 5836 5836 5836 5836 5835 5835 5833 5832 5831 5829 5828 5826 5824 5822 5821
5751 5754 5754 5757 5761 5766 5771 5776 5784 5790 5792 5793 5793 5795 5799 5801 5803 5806 5808 5811 5813 5815 5817 5819 5822 5824 5826 5827 5828 5829 5829 5829 5829 5828 5827 5826 5825 5823 5821 5819 5818 5816 5814 5812
5751 5753 5754 5756 5760 5764 5769 5773 5779 5783 5787 5790 5789 5792 5795 5797 5800 5802 5805 5807 5809 5811 5813 5815 5816 5818 5819 5820 5821 5821 5821 5821 5821 5821 5820 5819 5817 5816 5814 5812 5809 5807 5805 5803
5748 5752 5754 5756 5759 5763 5767 5771 5776 5781 5786 5787 5787 5789 5791 5794 5796 5798 5801 5803 5805 5806 5808 5810 5811 5812 5813 5814 5814 5814 5814 5813 5813 5813 5812 5810 5809 5807 5805 5802 5800 5798 5796 5794
5748 5751 5754 5756 5759 5762 5766 5770 5773 5778 5782 5786 5785 5787 5787 5789 5791 5793 5796 5798 5800 5801 5803 5804 5805 5806 5806 5806 5807 5806 5806 5805 5805 5804 5803 5801 5799 5797 5795 5793 5791 5788 5786 5783
5749 5752 5754 5756 5758 5761 5764 5767 5771 5776 5777 5780 5782 5783 5782 5784 5786 5788 5790 5792 5793 5795 5796 5797 5798 5798 5798 5798 5798 5798 5797 5796 5795 5794 5793 5791 5789 5787 5785 5783 5780 5778 5775 5772
5749 5752 5755 5757 5760 5761 5762 5765 5768 5771 5773 5776 5779 5779 5778 5779 5780 5782 5783 5785 5786 5787 5788 5789 5789 5789 5790 5789 5789 5789 5788 5787 5786 5784 5783 5781 5779 5776 5774 5772 5770 5767 5764 5761
5750 5751 5754 5757 5757 5759 5761 5763 5765 5768 5771 5772 5773 5772 5773 5774 5775 5776 5776 5777 5778 5779 5779 5780 5780 5780 5780 5780 5779 5779 5778 5777 5775 5774 5772 5770 5768 5766 5764 5762 5759 5756 5753 5750
5750 5751 5752 5754 5755 5757 5758 5760 5762 5763 5765 5766 5766 5767 5767 5768 5769 5769 5769 5770 5770 5770 5770 5771 5771 5770 5770 5770 5769 5768 5767 5766 5765 5763 5761 5759 5757 5755 5753 5751 5748 5745 5743 5739
5750 5750 5751 5752 5753 5755 5756 5757 5758 5759 5759 5760 5760 5761 5761 5762 5762 5762 5762 5762 5762 5762 5762 5761 5761 5761 5760 5759 5759 5758 5757 5756 5754 5753 5751 5749 5747 5745 5742 5740 5737 5734 5731 5728
5749 5750 5751 5751 5752 5752 5753 5753 5754 5754 5754 5755 5755 5755 5755 5755 5755 5755 5755 5755 5754 5754 5753 5753 5752 5752 5751 5751 5750 5749 5748 5746 5745 5743 5741 5739 5737 5735 5733 5730 5727 5724 5721 5718
5749 5749 5749 5750 5751 5751 5752 5750 5750 5750 5749 5749 5749 5748 5748 5748 5748 5747 5747 5747 5746 5746 5745 5745 5744 5744 5743 5742 5741 5740 5739 5738 5736 5734 5733 5731 5729 5726 5723 5721 5718 5715 5711 5708
5749 5749 5749 5748 5748 5748 5748 5746 5746 5745 5744 5744 5743 5742 5742 5741 5740 5740 5740 5740 5739 5738 5738 5737 5737 5736 5736 5735 5734 5733 5731 5730 5728 5726 5724 5722 5720 5718 5715 5712 5709 5705 5702 5698
5750 5749 5748 5747 5747 5746 5746 5743 5742 5742 5740 5739 5738 5737 5736 5736 5735 5735 5734 5733 5733 5733 5732 5731 5730 5730 5729 5728 5727 5726 5724 5723 5721 5719 5717 5715 5712 5710 5707 5704 5701 5697 5693 5689
5750 5749 5748 5746 5745 5744 5743 5740 5740 5739 5738 5735 5733 5732 5732 5731 5731 5730 5728 5728 5728 5727 5727 5726 5725 5724 5723 5722 5721 5719 5718 5716 5714 5712 5710 5708 5705 5703 5700 5696 5693 5689 5685 5681
5751 5749 5748 5746 5744 5744 5740 5738 5737 5736 5732 5731 5730 5729 5728 5727 5726 5725 5724 5724 5723 5723 5722 5721 5721 5720 5718 5717 5715 5713 5712 5709 5707 5705 5703 5701 5698 5696 5693 5689 5686 5682 5679 5675
5751 5750 5747 5746 5745 5741 5738 5736 5734 5732 5730 5728 5727 5726 5725 5724 5723 5722 5722 5721 5720 5719 5719 5718 5716 5715 5713 5712 5710 5708 5705 5703 5701 5699 5697 5694 5692 5689 5686 5684 5680 5677 5673 5669
5751 5749 5747 5744 5742 5739 5737 5735 5732 5730 5728 5726 5725 5724 5723 5722 5721 5720 5719 5718 5717 5716 5715 5714 5712 5711 5709 5706 5704 5702 5699 5697 5695 5693 5690 5688 5686 5684 5681 5678 5675 5672 5669 5665
5751 5749 5747 5744 5742 5739 5736 5734 5731 5729 5727 5725 5723 5722 5721 5720 5719 5718 5717 5716 5715 5714 5712 5710 5708 5706 5704 5701 5699 5696 5693 5691 5689 5687 5685 5683 5681 5679 5677 5674 5671 5668 5665 5662
5751 5749 5747 5745 5742 5739 5736 5733 5731 5728 5726 5725 5723 5721 5720 5719 5718 5717 5715 5714 5712 5711 5709 5707 5704 5702 5699 5697 5693 5690 5688 5685 5683 5681 5679 5678 5676 5674 5673 5671 5668 5665 5662 5659